Regional Weather Roundup
Issued by NWS Boston, MA

Home | Current Version | Previous Version | Text Only | Print | Product List | Glossary On
Versions: 1 2 3 4 5 6 7 8 9 10 11 12 13 14 15 16 17 18 19 20 21 22 23 24 25 26 27 28 29 30 31 32 33 34 35 36 37 38 39 40 41 42 43 44 45 46 47 48 49 50
000
ASUS41 KBOX 070310
RWRBOX

REGIONAL WEATHER ROUNDUP
NATIONAL WEATHER SERVICE TAUNTON MA
1100 PM EDT WED MAY 06 2015

NOTE:  "FAIR" INDICATES FEW OR NO CLOUDS BELOW 12,000 FEET WITH NO
SIGNIFICANT WEATHER AND/OR OBSTRUCTIONS TO VISIBILITY.  THE FOLLOWING
OBSERVATION LOCATIONS DO NOT REPORT PRESENT WEATHER...PROVINCETOWN...
SMITHFIELD...BLOCK ISLAND...KEENE...AND OXFORD.

MAZALL-070400-
EASTERN MASSACHUSETTS

CITY           SKY/WX    TMP DP  RH WIND       PRES   REMARKS
BOSTON         FAIR      59  33  37 SW10      30.20S
BEVERLY        CLEAR     60  30  32 SW9       30.19R
LAWRENCE       CLEAR     61  34  36 SW9       30.20S
BEDFORD        CLEAR     58  30  34 SW7       30.18S
BLUE HILL        N/A     56  32  40 SW16      30.20S
NORWOOD        CLEAR     54  33  45 S6        30.21S
MARSHFIELD     CLEAR     57  32  38 SW6       30.22S
PLYMOUTH       CLEAR     51  34  52 SW6       30.22S
TAUNTON        CLEAR     52  34  50 CALM      30.22S
NEW BEDFORD    CLEAR     47  35  63 CALM      30.23R
$$

MAZALL-070400-
CAPE COD AND THE ISLANDS

CITY           SKY/WX    TMP DP  RH WIND       PRES   REMARKS
FALMOUTH       FAIR      46  34  61 W3        30.22S
HYANNIS        CLEAR     54  36  50 SW6       30.21S
CHATHAM        CLEAR     53  38  56 SW5       30.22F
PROVINCETOWN   CLEAR     50  39  66 SW8       30.22R
NANTUCKET      CLEAR     45  39  79 S5        30.22F
MARTHAS VNYRD  CLEAR     45  37  73 SW3       30.22S
$$

MAZALL-070400-
CENTRAL AND WESTERN MASSACHUSETTS

CITY           SKY/WX    TMP DP  RH WIND       PRES   REMARKS
WORCESTER      CLEAR     57  30  35 W14       30.22S
FITCHBURG      CLEAR     59  36  42 CALM      30.20R
ORANGE         CLEAR     58  38  47 S7        30.21R
SPRINGFIELD    FAIR      57  32  39 S8        30.20F
WESTFIELD      CLEAR     57  33  40 S6        30.21S
NORTH ADAMS    CLEAR     48  41  76 CALM      30.21S
PITTSFIELD     CLEAR     53  39  59 CALM      30.21S
$$

RIZALL-070400-
RHODE ISLAND

CITY           SKY/WX    TMP DP  RH WIND       PRES   REMARKS
PROVIDENCE     CLEAR     54  32  43 W6        30.23S
NEWPORT        CLEAR     51  31  46 CALM      30.23S
BLOCK ISLAND   CLEAR     48  37  66 W5        30.23F
SMITHFIELD     CLEAR     54  28  37 SW5       30.22S
WESTERLY       CLEAR     47  36  65 CALM      30.24S
$$

CTZALL-070400-
CONNECTICUT

CITY           SKY/WX    TMP DP  RH WIND       PRES   REMARKS
BRADLEY INTL   CLEAR     58  31  35 S7        30.22S
HARTFORD       CLEAR     55  34  45 S5        30.23S
BRIDGEPORT     CLEAR     53  42  66 E3        30.24S
DANBURY        CLEAR     49  41  74 SW5       30.25S
GROTON         CLEAR     47  35  63 NE3       30.23S
NEW HAVEN      CLEAR     48  37  65 CALM      30.24S
CHESTER        NOT AVBL
MERIDEN        CLEAR     49  36  61 CALM      30.24S
WILLIMANTIC    FAIR      52  34  50 CALM      30.24S
OXFORD         CLEAR     52  30  43 CALM      30.26S
$$

MEZ002-015-021-024-NHZ003-005-008-011-012-014-VTZ005-008-070400-
NORTHERN NEW ENGLAND

CITY           SKY/WX    TMP DP  RH WIND       PRES   REMARKS
PORTLAND ME    CLEAR     56  38  50 CALM      30.15S
BANGOR ME      MOCLDY    61  36  39 SW6       30.10R
CONCORD NH     CLEAR     54  39  57 E3        30.16S
MANCHESTER NH  CLEAR     65  32  29 S6        30.16R
NASHUA NH      CLEAR     63  34  33 CALM      30.18S
PORTSMOUTH NH  CLEAR     60  37  41 SW7       30.14F
JAFFREY NH     CLEAR     57  37  47 S5        30.21S
KEENE NH       CLEAR     54  37  54 CALM      30.20R
BURLINGTON VT  CLEAR     59  37  44 S5        30.16F
MT. WASHINGTON PTCLDY    37  27  65 NW47G53     N/A  WCI  22
$$

NYZ052-076-070400-
EASTERN NEW YORK

CITY           SKY/WX    TMP DP  RH WIND       PRES   REMARKS
ALBANY         CLEAR     63  38  39 S8        30.19S
NEW YORK CITY  PTCLDY    61  43  51 S5        30.24S
$$

ANZALL-070400-
MARINE OBSERVATIONS

STATION/POSITION TIME  TEMP    WIND        PRES    VSBY  WAVE
                       AIR SEA DIR/SP/G                  HT/PER
                 (UTC) (F)     (DEG/KT/KT) (MB)    (MI)  (FT/S)
BOSTON BUOY      0250   54 48  220/  8/  8   N/A           1/10
BUZZARDS BAY     0200          230/  7/  7   N/A
NANTUCKET SOUND  0250   53 50  200/  8/  8   N/A           1
MASS BAY-STELLWA 0204   53 48  210/ 12/ 12   N/A    1 7/8  2/ 4
ISLE OF SHOALS   0200   59     210/ 22/ 22   N/A
S OF BLOCK IS    0208      48                N/A           3/ 6
$$

......................KEY.........................
  SKY/WX - SKY CONDITION/PRESENT WEATHER
  TMP    - TEMPERATURE IN FAHRENHEIT
  DWPT   - DEWPOINT IN FAHRENHEIT
  RH     - RELATIVE HUMIDITY IN PERCENT
  WIND   - DIRECTION AND SPEED IN MPH
  PRES   - MEAN SEA LEVEL PRESSURE IN INCHES OF HG
  WCI    - WIND CHILL INDEX
  VSB    - VISIBILITY IN MILES
  HX     - HEAT INDEX
  TC     - TEMPERATURE IN CELSIUS
  VRB    - VARIABLE WIND DIRECTION
  N/A    - NOT AVAILABLE



USA.gov is the U.S. government's official web portal to all federal, state and local government web resources and services.